Погода в Красном

Россия / Белгородская область     50°55′58″N   38°40′52″E
темп.,
°C
ветер,
м/с
пор.,
м/с
влажн.,
%
обл.,
%
осадки,
мм/ч
давл.,
гПа
погр.,
м
3 августа, вт
вт300:00+23зюз495311 0.0 1009205
03:00+20с227488 0.0 101018
06:00+20ююз2284100 1.6 101046
09:00+25зюз466359 1.6 1011620
12:00+25зюз456599 0.1 1011711
15:00+26юз245892 0.8 1011990
18:00+27зсз4548100 0.4 1010919
21:00+20сз4874100 1.1 1012166
4 августа, ср
ср400:00+18с3781100 0.3 1013132
03:00+16с228138 0.3 101421
06:00+16ссз24815 0.0 101690
09:00+23ссз35500 0.0 1016733
12:00+27сз553431 0.0 10162627
15:00+27зсз553125 0.0 10162753
18:00+26з233610 0.0 10161706
21:00+20ссз23525 0.0 101737
5 августа, чт
чт500:00+17с226097 0.0 101815
03:00+15с11625 0.0 101811
06:00+16ссв1164100 0.0 101913
09:00+22всв22457 0.0 1018464
12:00+27вюв113498 0.0 10181685
15:00+28ю1131100 0.0 10162121
18:00+26ююз2240100 0.0 101645
21:00+22юв224373 0.0 101521
6 августа, пт
пт600:00+19юв22505 0.0 101522
03:00+18юв34525 0.0 101446
06:00+18юв3656100 0.0 1014131
09:00+25ююв594066 0.0 1014532
12:00+30ююв6729100 0.0 10121793
15:00+32ююв56255 0.0 10102355
18:00+31ююв352917 0.0 1009835
21:00+25вюв334011 0.0 100935
7 августа, сб
сб700:00+23вюв4941100 0.0 1009139
03:00+21вюв3104369 0.0 1008172
06:00+21ююв3105150 0.1 1009226
09:00+23ююв4865100 2.0 1010284
12:00+27юв6944100 0.5 1009527
15:00+34ююв4924100 0.6 10082813
18:00+34ююв482531 0.0 1007448
21:00+28юв7172776 0.0 1008455